Home   Weather   Cleveland   Past weeks

Flag for USA Past Weather in Cleveland, Tennessee, USA — Yesterday and Last 2 Weeks

Now
51 °F

Fog.


Feels Like: 51 °F
Forecast: 50 / 69 °F
Wind: No wind

Location: Lovell Field

Current Time: Jan 16, 2017 at 8:14:18 am

Latest Report: Jan 16, 2017 at 7:36 am


Visibility: 1 mi

Pressure: 30.28 "Hg

Humidity: 89%

Dew Point: 48 °F

Location of ClevelandLocation

Past Weather in Cleveland — Graph

°F

Cleveland Temperature Yesterday

Maximum temperature yesterday: 72 °F (at 1:53 pm)
Minimum temperature yesterday: 51 °F (at 5:53 am)
Average temperature yesterday: 60 °F

High & Low Weather Summary for the Past Weeks

 TemperatureHumidityPressure
High73 °F (Jan 14, 1:53 pm)100% (Jan 14, 7:53 am)30.81 "Hg (Jan 14, 7:53 am)
Low14 °F (Jan 8, 7:53 am)24% (Jan 9, 2:53 pm)29.78 "Hg (Jan 3, 3:53 pm)
Average47 °F72%30.24 "Hg
* Reported Jan 1 6:53 am — Jan 16 6:53 am, Cleveland, Weather by CustomWeather, © 2017

Note: Actual official high and low records may vary slightly from our data, if they occured in-between our weather recording intervals... More about our weather records

Advertising

Cleveland Weather History for the Previous 24 Hours

Scroll right to see more
 ConditionsComfort  
Time TempWeatherWind HumidityBarometerVisibility
6:53 am
Mon, Jan 16
51 °FFog.No wind89%30.26 "Hg4 mi
6:34 am51 °FFog.No wind89%30.27 "Hg4 mi
5:53 am50 °FFog.No wind93%30.24 "Hg5 mi
5:31 am49 °FPartly cloudy.No wind93%30.25 "Hg9 mi
4:53 am50 °FPassing clouds.No wind93%30.23 "Hg7 mi
3:53 am48 °FPassing clouds.No wind93%30.24 "Hg8 mi
2:53 am51 °FClear.No wind92%30.22 "Hg8 mi
1:53 am52 °FClear.No wind89%30.22 "Hg10 mi
12:53 am53 °FClear.No wind86%30.23 "Hg10 mi
11:53 pm
Sun, Jan 15
55 °FPassing clouds.No wind87%30.23 "Hg10 mi
10:53 pm55 °FPassing clouds.3 mph87%30.23 "Hg10 mi
9:53 pm56 °FPassing clouds.No wind84%30.24 "Hg10 mi
8:53 pm60 °FPassing clouds.No wind75%30.24 "Hg10 mi
7:53 pm61 °FPartly cloudy.No wind72%30.23 "Hg10 mi
6:53 pm66 °FPassing clouds.No wind61%30.23 "Hg10 mi
5:53 pm69 °FPartly cloudy.No wind53%30.22 "Hg10 mi
4:53 pm71 °FBroken clouds.3 mph49%30.21 "Hg10 mi
3:53 pm72 °FBroken clouds.5 mph48%30.21 "Hg10 mi
2:53 pm71 °FBroken clouds.6 mph51%30.22 "Hg10 mi
1:53 pm72 °FBroken clouds.9 mph52%30.24 "Hg10 mi
12:53 pm69 °FBroken clouds.3 mph61%30.27 "Hg10 mi
11:53 am65 °FBroken clouds.5 mph70%30.30 "Hg10 mi
10:53 am64 °FBroken clouds.5 mph73%30.33 "Hg10 mi
9:53 am59 °FBroken clouds.3 mph81%30.33 "Hg10 mi
9:07 am56 °FBroken clouds.No wind87%30.34 "Hg10 mi
Weather by CustomWeather, © 2017

See weather overviewHow to use our weather pages